Powrót do katalogu

STARLINK-5511

AktywnyŁącznośćVLEO
NORAD 57252·PAYLOAD·🇺🇸 United States

Wystrzelony Jul 7, 2023 z Vandenberg Space Force Base

Loading…

Następne Przeloty (najbliższe 24 godziny)

TLE

ŚwieżeSource: CelesTrak SupGP

Epoka: Sep 14, 2026, 22:09 UTC

1 57252C 23094AL  26257.92340278  .00016669  00000+0  60359-3 0  2576
2 57252  43.0014  30.8268 0002321 266.7840 147.0182 15.27576325    10

Śledź STARLINK-5511 w czasie rzeczywistym z AllMySat

Download on the App Store